TimeMDT,TemperatureF,Dew PointF,Humidity,Sea Level PressureIn,VisibilityMPH,Wind Direction,Wind SpeedMPH,Gust SpeedMPH,PrecipitationIn,Events,Conditions,WindDirDegrees,DateUTC
12:15 AM,84.2,44.6,25,29.99,10.0,West,11.5,-,N/A,,Clear,280,2013-07-27 06:15:00
12:35 AM,84.2,41.0,22,29.99,10.0,WNW,10.4,-,N/A,,Clear,300,2013-07-27 06:35:00
12:55 AM,86.0,41.0,20,29.99,10.0,West,6.9,-,N/A,,Clear,280,2013-07-27 06:55:00
1:15 AM,84.2,41.0,22,30.00,10.0,WNW,11.5,16.1,N/A,,Clear,290,2013-07-27 07:15:00
1:35 AM,84.2,41.0,22,30.01,10.0,West,9.2,-,N/A,,Clear,280,2013-07-27 07:35:00
1:55 AM,84.2,41.0,22,30.01,10.0,West,6.9,-,N/A,,Partly Cloudy,280,2013-07-27 07:55:00
2:15 AM,84.2,41.0,22,30.01,10.0,West,5.8,-,N/A,,Mostly Cloudy,260,2013-07-27 08:15:00
2:35 AM,84.2,39.2,20,30.01,10.0,West,9.2,-,N/A,,Partly Cloudy,270,2013-07-27 08:35:00
2:55 AM,84.2,41.0,22,30.02,10.0,SW,9.2,-,N/A,,Clear,220,2013-07-27 08:55:00
3:15 AM,84.2,41.0,22,30.01,10.0,NW,6.9,-,N/A,,Clear,310,2013-07-27 09:15:00
3:35 AM,86.0,39.2,19,30.00,10.0,WNW,8.1,-,N/A,,Clear,300,2013-07-27 09:35:00
3:55 AM,86.0,39.2,19,30.00,10.0,NW,8.1,-,N/A,,Clear,320,2013-07-27 09:55:00
4:15 AM,80.6,41.0,24,30.00,10.0,North,5.8,-,N/A,,Clear,360,2013-07-27 10:15:00
4:35 AM,80.6,42.8,26,29.99,10.0,NNE,4.6,-,N/A,,Clear,20,2013-07-27 10:35:00
4:55 AM,77.0,44.6,32,29.99,10.0,NNE,4.6,-,N/A,,Clear,20,2013-07-27 10:55:00
5:15 AM,77.0,42.8,29,29.99,10.0,NNW,4.6,-,N/A,,Clear,340,2013-07-27 11:15:00
5:35 AM,77.0,41.0,28,29.99,10.0,NW,4.6,-,N/A,,Clear,310,2013-07-27 11:35:00
5:55 AM,75.2,41.0,29,30.00,10.0,SSE,4.6,-,N/A,,Clear,150,2013-07-27 11:55:00
6:15 AM,68.0,46.4,46,30.00,10.0,Calm,Calm,-,N/A,,Clear,0,2013-07-27 12:15:00
6:35 AM,68.0,48.2,49,30.01,10.0,SE,4.6,-,N/A,,Clear,140,2013-07-27 12:35:00
6:55 AM,68.0,46.4,46,30.01,10.0,SSE,3.5,-,N/A,,Clear,160,2013-07-27 12:55:00
7:15 AM,68.0,48.2,49,30.01,10.0,WNW,3.5,-,N/A,,Clear,290,2013-07-27 13:15:00
7:55 AM,75.2,32.0,21,30.01,10.0,WNW,8.1,-,N/A,,Scattered Clouds,290,2013-07-27 13:55:00
8:15 AM,75.2,32.0,21,30.01,10.0,WNW,10.4,-,N/A,,Mostly Cloudy,300,2013-07-27 14:15:00
8:35 AM,75.2,32.0,21,30.01,10.0,WNW,10.4,-,N/A,,Mostly Cloudy,290,2013-07-27 14:35:00
8:55 AM,75.2,33.8,22,30.02,10.0,West,8.1,-,N/A,,Scattered Clouds,280,2013-07-27 14:55:00
9:15 AM,75.2,35.6,24,30.02,10.0,WNW,9.2,-,N/A,,Mostly Cloudy,290,2013-07-27 15:15:00
9:35 AM,75.2,35.6,24,30.02,10.0,WNW,11.5,-,N/A,,Mostly Cloudy,290,2013-07-27 15:35:00
9:55 AM,75.2,37.4,25,30.02,10.0,NW,9.2,-,N/A,,Partly Cloudy,320,2013-07-27 15:55:00
10:15 AM,77.0,41.0,28,30.03,10.0,NW,6.9,-,N/A,,Clear,320,2013-07-27 16:15:00
10:35 AM,78.8,39.2,24,30.02,10.0,NNW,8.1,-,N/A,,Partly Cloudy,330,2013-07-27 16:35:00
10:55 AM,82.4,39.2,21,30.02,10.0,NNW,10.4,-,N/A,,Partly Cloudy,330,2013-07-27 16:55:00
11:15 AM,82.4,39.2,21,30.02,10.0,NNW,9.2,-,N/A,,Clear,340,2013-07-27 17:15:00
11:35 AM,84.2,41.0,22,30.01,10.0,NW,10.4,-,N/A,,Clear,310,2013-07-27 17:35:00
11:55 AM,84.2,39.2,20,30.01,10.0,WNW,12.7,-,N/A,,Clear,300,2013-07-27 17:55:00
12:15 PM,86.0,39.2,19,30.00,10.0,NW,11.5,16.1,N/A,,Clear,320,2013-07-27 18:15:00
12:35 PM,86.0,37.4,18,30.00,10.0,NW,10.4,-,N/A,,Clear,320,2013-07-27 18:35:00
12:55 PM,87.8,37.4,17,29.99,10.0,NW,11.5,-,N/A,,Clear,320,2013-07-27 18:55:00
1:15 PM,86.0,35.6,17,29.98,10.0,NW,8.1,-,N/A,,Clear,310,2013-07-27 19:15:00
1:35 PM,89.6,32.0,13,29.97,10.0,WNW,8.1,-,N/A,,Clear,300,2013-07-27 19:35:00
1:55 PM,89.6,33.8,14,29.96,10.0,NNW,9.2,-,N/A,,Clear,330,2013-07-27 19:55:00
2:15 PM,91.4,30.2,11,29.95,10.0,North,10.4,-,N/A,,Clear,360,2013-07-27 20:15:00
2:35 PM,91.4,33.8,13,29.94,10.0,North,5.8,-,N/A,,Clear,10,2013-07-27 20:35:00
2:55 PM,91.4,35.6,14,29.93,10.0,North,10.4,-,N/A,,Clear,10,2013-07-27 20:55:00
3:15 PM,91.4,32.0,12,29.92,10.0,NNE,9.2,-,N/A,,Clear,20,2013-07-27 21:15:00
3:35 PM,93.2,32.0,11,29.92,10.0,North,11.5,17.3,N/A,,Clear,350,2013-07-27 21:35:00
3:55 PM,93.2,32.0,11,29.91,10.0,North,10.4,-,N/A,,Clear,350,2013-07-27 21:55:00
4:15 PM,93.2,32.0,11,29.89,10.0,North,10.4,-,N/A,,Clear,350,2013-07-27 22:15:00
4:35 PM,93.2,32.0,11,29.88,10.0,North,10.4,-,N/A,,Clear,10,2013-07-27 22:35:00
4:55 PM,93.2,32.0,11,29.87,10.0,North,10.4,17.3,N/A,,Clear,10,2013-07-27 22:55:00
5:15 PM,93.2,32.0,11,29.86,10.0,NNW,9.2,16.1,N/A,,Clear,340,2013-07-27 23:15:00
5:35 PM,93.2,32.0,11,29.85,10.0,North,9.2,16.1,N/A,,Clear,350,2013-07-27 23:35:00
5:55 PM,95.0,32.0,11,29.84,10.0,North,8.1,-,N/A,,Clear,10,2013-07-27 23:55:00
6:15 PM,93.2,32.0,11,29.83,10.0,North,8.1,-,N/A,,Clear,10,2013-07-28 00:15:00
6:35 PM,93.2,32.0,11,29.83,10.0,NNE,5.8,-,N/A,,Clear,30,2013-07-28 00:35:00
6:55 PM,93.2,32.0,11,29.82,10.0,NNE,5.8,-,N/A,,Clear,20,2013-07-28 00:55:00
7:15 PM,93.2,32.0,11,29.82,10.0,North,6.9,-,N/A,,Clear,350,2013-07-28 01:15:00
7:35 PM,93.2,33.8,12,29.81,10.0,North,6.9,-,N/A,,Clear,350,2013-07-28 01:35:00
7:55 PM,91.4,33.8,13,29.81,10.0,North,4.6,-,N/A,,Clear,350,2013-07-28 01:55:00
8:15 PM,91.4,32.0,12,29.81,10.0,NNW,4.6,-,N/A,,Clear,330,2013-07-28 02:15:00
8:35 PM,91.4,32.0,12,29.80,10.0,NNW,3.5,-,N/A,,Clear,330,2013-07-28 02:35:00
8:55 PM,89.6,32.0,13,29.81,10.0,NW,4.6,-,N/A,,Clear,320,2013-07-28 02:55:00
9:15 PM,86.0,35.6,17,29.81,10.0,WNW,4.6,-,N/A,,Clear,290,2013-07-28 03:15:00
9:35 PM,86.0,35.6,17,29.82,10.0,WNW,6.9,-,N/A,,Clear,300,2013-07-28 03:35:00
9:55 PM,86.0,35.6,17,29.83,10.0,NW,10.4,-,N/A,,Clear,310,2013-07-28 03:55:00
10:15 PM,82.4,37.4,20,29.83,10.0,NW,9.2,-,N/A,,Clear,320,2013-07-28 04:15:00
10:35 PM,80.6,35.6,20,29.84,10.0,NW,8.1,-,N/A,,Clear,320,2013-07-28 04:35:00
10:55 PM,78.8,33.8,20,29.84,10.0,NW,6.9,-,N/A,,Clear,320,2013-07-28 04:55:00
11:15 PM,77.0,33.8,21,29.85,10.0,NW,9.2,-,N/A,,Unknown,320,2013-07-28 05:15:00
11:35 PM,77.0,32.0,19,29.85,10.0,NW,8.1,-,N/A,,Clear,320,2013-07-28 05:35:00
11:55 PM,75.2,32.0,21,29.86,10.0,WNW,6.9,-,N/A,,Clear,290,2013-07-28 05:55:00